User: anonymous   Login
Location: Unspecified
(0.0000°N, 0.0000°E)
Time: 03:05:32
(UTC+00:00)
Language:

USA 197 - Orbit

View from above orbital plane
View from above orbital plane
View from above satellite
View from above satellite

Ground track
Ground track

The orbit data is extracted from the following two-line orbital elements,

1 32287U 07054A   18044.77307703 0.00000000  00000-0  00000-0 0    02
2 32287   4.5345  71.4102 0003095 189.5828 170.4235  1.00254489    03
Epoch (UTC): 13 February 2018 18:33:13
Eccentricity: 0.0003095
inclination: 4.5345°
perigee height: 35778 km
apogee height: 35804 km
right ascension of ascending node: 71.4102°
argument of perigee: 189.5828°
revolutions per day: 1.00254489
mean anomaly at epoch: 170.4235°
orbit number at epoch: 0

The dashed part of the orbit path shows where the satellite is in the earth's shadow,  

DLR